Year,Month,Day,Hour,Minute,Value (Times are PST for temperature in C)
2012,08,11,11,17,23.10
2012,08,11,11,18,23.10
2012,08,11,11,19,23.00
2012,08,11,11,20,23.00
2012,08,11,11,21,23.00
2012,08,11,11,22,23.00
2012,08,11,11,23,23.00
2012,08,11,11,24,22.90
2012,08,11,11,25,22.90
2012,08,11,11,26,22.90
2012,08,11,11,27,22.90
2012,08,11,11,28,22.90
2012,08,11,11,29,22.80
2012,08,11,11,30,22.90
2012,08,11,11,31,22.90
2012,08,11,11,32,23.00
2012,08,11,11,33,23.00
2012,08,11,11,34,23.10
2012,08,11,11,35,23.20
2012,08,11,11,36,23.20
2012,08,11,11,37,23.30
2012,08,11,11,38,23.40
2012,08,11,11,39,23.60
2012,08,11,11,40,23.70
2012,08,11,11,41,23.70
2012,08,11,11,42,23.60
2012,08,11,11,43,23.60
2012,08,11,11,44,23.60
2012,08,11,11,45,23.60
2012,08,11,11,46,23.60
2012,08,11,11,47,23.60
2012,08,11,11,48,23.60
2012,08,11,11,49,23.60
2012,08,11,11,50,23.60
2012,08,11,11,51,23.70
2012,08,11,11,52,23.70
2012,08,11,11,53,23.70
2012,08,11,11,54,23.70
2012,08,11,11,55,23.80
2012,08,11,11,56,23.90
2012,08,11,11,57,23.90
2012,08,11,11,58,23.90
2012,08,11,11,59,23.90
2012,08,11,12,00,23.90
2012,08,11,12,01,23.90
2012,08,11,12,02,23.90
2012,08,11,12,03,23.90
2012,08,11,12,04,23.80
2012,08,11,12,05,23.70
2012,08,11,12,06,23.70
2012,08,11,12,07,23.70
2012,08,11,12,08,23.60
2012,08,11,12,09,23.60
2012,08,11,12,10,23.60
2012,08,11,12,11,23.60
2012,08,11,12,12,23.50
2012,08,11,12,13,23.50
2012,08,11,12,14,23.50
2012,08,11,12,15,23.60
2012,08,11,12,16,23.60
2012,08,11,12,17,23.70
2012,08,11,12,18,23.70
2012,08,11,12,19,23.80
2012,08,11,12,20,23.90
2012,08,11,12,21,24.00
2012,08,11,12,22,24.00
2012,08,11,12,23,24.10
2012,08,11,12,24,24.20
2012,08,11,12,25,24.30
2012,08,11,12,26,24.30
2012,08,11,12,27,24.30
2012,08,11,12,28,24.30
2012,08,11,12,29,24.30
2012,08,11,12,30,24.30
2012,08,11,12,31,24.40
2012,08,11,12,32,24.50
2012,08,11,12,33,24.50
2012,08,11,12,34,24.60
2012,08,11,12,35,24.70
2012,08,11,12,36,24.70
2012,08,11,12,37,24.80
2012,08,11,12,38,24.90
2012,08,11,12,39,24.90
2012,08,11,12,40,25.10
2012,08,11,12,41,25.10
2012,08,11,12,42,25.20
2012,08,11,12,43,25.20
2012,08,11,12,44,25.20
2012,08,11,12,45,25.20
2012,08,11,12,46,25.30
2012,08,11,12,47,25.30
2012,08,11,12,48,25.20
2012,08,11,12,49,25.20
2012,08,11,12,50,25.30
2012,08,11,12,51,25.30
2012,08,11,12,52,25.40
2012,08,11,12,53,25.50
2012,08,11,12,54,25.60
2012,08,11,12,55,25.70
2012,08,11,12,56,25.80
2012,08,11,12,57,25.80
2012,08,11,12,58,25.70
2012,08,11,12,59,25.70
2012,08,11,13,00,25.60
2012,08,11,13,01,25.60
2012,08,11,13,02,25.60
2012,08,11,13,03,25.60
2012,08,11,13,04,25.50
2012,08,11,13,05,25.50
2012,08,11,13,06,25.50
2012,08,11,13,07,25.40
2012,08,11,13,08,25.40
2012,08,11,13,09,25.50
2012,08,11,13,10,25.50
2012,08,11,13,11,25.60
2012,08,11,13,12,25.60
2012,08,11,13,13,25.70
2012,08,11,13,14,25.70
2012,08,11,13,15,25.70
2012,08,11,13,16,25.70
2012,08,11,13,17,25.70
2012,08,11,13,18,25.70
2012,08,11,13,19,25.70
2012,08,11,13,20,25.80
2012,08,11,13,21,25.70
2012,08,11,13,22,25.70
2012,08,11,13,23,25.70
2012,08,11,13,24,25.70
2012,08,11,13,25,25.70
2012,08,11,13,26,25.80
2012,08,11,13,27,25.80
2012,08,11,13,28,25.80
2012,08,11,13,29,25.70
2012,08,11,13,30,25.70
2012,08,11,13,31,25.70
2012,08,11,13,32,25.70
2012,08,11,13,33,25.70
2012,08,11,13,34,25.70
2012,08,11,13,35,25.80
2012,08,11,13,36,25.80
2012,08,11,13,37,25.80
2012,08,11,13,38,25.80
2012,08,11,13,39,25.80
2012,08,11,13,40,25.80
2012,08,11,13,41,25.70
2012,08,11,13,42,25.70
2012,08,11,13,43,25.60
2012,08,11,13,44,25.60
2012,08,11,13,45,25.60
2012,08,11,13,46,25.60
2012,08,11,13,47,25.60
2012,08,11,13,48,25.70
2012,08,11,13,49,25.80
2012,08,11,13,50,25.90
2012,08,11,13,51,25.90
2012,08,11,13,52,25.90
2012,08,11,13,53,26.00
2012,08,11,13,54,26.10
2012,08,11,13,55,26.10
2012,08,11,13,56,26.10
2012,08,11,13,57,25.90
2012,08,11,13,58,25.90
2012,08,11,13,59,25.80
2012,08,11,14,00,25.80
2012,08,11,14,01,25.70
2012,08,11,14,02,25.70
2012,08,11,14,03,25.70
2012,08,11,14,04,25.70
2012,08,11,14,05,25.70
2012,08,11,14,06,25.70
2012,08,11,14,07,25.70
2012,08,11,14,08,25.80
2012,08,11,14,09,25.90
2012,08,11,14,10,25.90
2012,08,11,14,11,25.90
2012,08,11,14,12,25.90
2012,08,11,14,13,25.90
2012,08,11,14,14,25.90
2012,08,11,14,15,26.00
2012,08,11,14,16,26.00
2012,08,11,14,17,26.00
2012,08,11,14,18,26.10
2012,08,11,14,19,26.10
2012,08,11,14,20,26.20
2012,08,11,14,21,26.20
2012,08,11,14,22,26.20
2012,08,11,14,23,26.20
2012,08,11,14,24,26.20
2012,08,11,14,25,26.30
2012,08,11,14,26,26.40
2012,08,11,14,27,26.50
2012,08,11,14,28,26.60
2012,08,11,14,29,26.70
2012,08,11,14,30,26.70
2012,08,11,14,31,26.70
2012,08,11,14,32,26.80
2012,08,11,14,33,26.90
2012,08,11,14,34,26.90
2012,08,11,14,35,26.90
2012,08,11,14,36,27.00
2012,08,11,14,37,27.00
2012,08,11,14,38,27.10
2012,08,11,14,39,27.10
2012,08,11,14,40,27.10
2012,08,11,14,41,27.10
2012,08,11,14,42,27.20
2012,08,11,14,43,27.20
2012,08,11,14,44,27.10
2012,08,11,14,45,27.00
2012,08,11,14,46,26.90
2012,08,11,14,47,26.80
2012,08,11,14,48,26.80
2012,08,11,14,49,26.80
2012,08,11,14,50,26.80
2012,08,11,14,51,26.80
2012,08,11,14,52,26.80
2012,08,11,14,53,26.80
2012,08,11,14,54,26.80
2012,08,11,14,55,26.80
2012,08,11,14,56,26.90
2012,08,11,14,57,26.90
2012,08,11,14,58,26.80
2012,08,11,14,59,26.80
2012,08,11,15,00,26.80
2012,08,11,15,01,26.80
2012,08,11,15,02,26.70
2012,08,11,15,03,26.70
2012,08,11,15,04,26.70
2012,08,11,15,05,26.70
2012,08,11,15,06,26.80
2012,08,11,15,07,26.80
2012,08,11,15,08,26.80
2012,08,11,15,09,26.90
2012,08,11,15,10,27.00
2012,08,11,15,11,27.10
2012,08,11,15,12,27.30
2012,08,11,15,13,27.40
2012,08,11,15,14,27.50
2012,08,11,15,15,27.60
2012,08,11,15,16,27.60
2012,08,11,15,17,27.70
2012,08,11,15,18,27.70
2012,08,11,15,19,27.70
2012,08,11,15,20,27.70
2012,08,11,15,21,27.80
2012,08,11,15,22,27.70
2012,08,11,15,23,27.70
2012,08,11,15,24,27.80
2012,08,11,15,25,27.80
2012,08,11,15,26,27.80
2012,08,11,15,27,27.80
2012,08,11,15,28,27.80
2012,08,11,15,29,27.90
2012,08,11,15,30,27.90
2012,08,11,15,31,27.90
2012,08,11,15,32,27.90
2012,08,11,15,33,27.90
2012,08,11,15,34,27.90
2012,08,11,15,35,27.90
2012,08,11,15,36,27.90
2012,08,11,15,37,27.90
2012,08,11,15,38,27.80
2012,08,11,15,39,27.80
2012,08,11,15,40,27.70
2012,08,11,15,41,27.60
2012,08,11,15,42,27.60
2012,08,11,15,43,27.60
2012,08,11,15,44,27.60
2012,08,11,15,45,27.60
2012,08,11,15,46,27.60
2012,08,11,15,47,27.60
2012,08,11,15,48,27.50
2012,08,11,15,49,27.50
2012,08,11,15,50,27.50
2012,08,11,15,51,27.60
2012,08,11,15,52,27.60
2012,08,11,15,53,27.70
2012,08,11,15,54,27.70
2012,08,11,15,55,27.80
2012,08,11,15,56,27.80
2012,08,11,15,57,27.80
2012,08,11,15,58,27.90
2012,08,11,15,59,27.90
2012,08,11,16,00,28.00
2012,08,11,16,01,28.10
2012,08,11,16,02,28.10
2012,08,11,16,03,28.10
2012,08,11,16,04,28.10
2012,08,11,16,05,28.10
2012,08,11,16,06,28.10
2012,08,11,16,07,28.10
2012,08,11,16,08,28.10
2012,08,11,16,09,28.10
2012,08,11,16,10,28.10
2012,08,11,16,11,28.10
2012,08,11,16,12,28.20
2012,08,11,16,13,28.20
2012,08,11,16,14,28.20
2012,08,11,16,15,28.20
2012,08,11,16,16,28.20
2012,08,11,16,17,28.20
2012,08,11,16,18,28.20
2012,08,11,16,19,28.10
2012,08,11,16,20,28.20
2012,08,11,16,21,28.20
2012,08,11,16,22,28.20
2012,08,11,16,23,28.30
2012,08,11,16,24,28.30
2012,08,11,16,25,28.30
2012,08,11,16,26,28.30
2012,08,11,16,27,28.30
2012,08,11,16,28,28.30
2012,08,11,16,29,28.30
2012,08,11,16,30,28.30
2012,08,11,16,31,28.40
2012,08,11,16,32,28.40
2012,08,11,16,33,28.40
2012,08,11,16,34,28.40
2012,08,11,16,35,28.40
2012,08,11,16,36,28.40
2012,08,11,16,37,28.40
2012,08,11,16,38,28.30
2012,08,11,16,39,28.30
2012,08,11,16,40,28.20
2012,08,11,16,41,28.10
2012,08,11,16,42,28.10
2012,08,11,16,43,28.10
2012,08,11,16,44,28.10
2012,08,11,16,45,28.10
2012,08,11,16,46,28.10
2012,08,11,16,47,28.10
2012,08,11,16,48,28.20
2012,08,11,16,49,28.20
2012,08,11,16,50,28.20
2012,08,11,16,51,28.30
2012,08,11,16,52,28.40
2012,08,11,16,53,28.40
2012,08,11,16,54,28.40
2012,08,11,16,55,28.50
2012,08,11,16,56,28.50
2012,08,11,16,57,28.50
2012,08,11,16,58,28.60
2012,08,11,16,59,28.60
2012,08,11,17,00,28.60
2012,08,11,17,01,28.70
2012,08,11,17,02,28.70
2012,08,11,17,03,28.70
2012,08,11,17,04,28.80
2012,08,11,17,05,28.80
2012,08,11,17,06,28.80
2012,08,11,17,07,28.80
2012,08,11,17,08,28.80
2012,08,11,17,09,28.80
2012,08,11,17,10,28.80
2012,08,11,17,11,28.70
2012,08,11,17,12,28.70
2012,08,11,17,13,28.70
2012,08,11,17,14,28.70
2012,08,11,17,15,28.70
2012,08,11,17,16,28.70
2012,08,11,17,17,28.70
2012,08,11,17,18,28.70
2012,08,11,17,19,28.70
2012,08,11,17,20,28.70
2012,08,11,17,21,28.70
2012,08,11,17,22,28.70
2012,08,11,17,23,28.80
2012,08,11,17,24,28.80
2012,08,11,17,25,28.80
2012,08,11,17,26,28.70
2012,08,11,17,27,28.70
2012,08,11,17,28,28.70
2012,08,11,17,29,28.70
2012,08,11,17,30,28.70
2012,08,11,17,31,28.70
2012,08,11,17,32,28.70
2012,08,11,17,33,28.70
2012,08,11,17,34,28.70
2012,08,11,17,35,28.70
2012,08,11,17,36,28.70
2012,08,11,17,37,28.60
2012,08,11,17,38,28.60
2012,08,11,17,39,28.60
2012,08,11,17,40,28.50
2012,08,11,17,41,28.40
2012,08,11,17,42,28.30
2012,08,11,17,43,28.20
2012,08,11,17,44,28.20
2012,08,11,17,45,28.10
2012,08,11,17,46,28.00
2012,08,11,17,47,27.90
2012,08,11,17,48,27.80
2012,08,11,17,49,27.80
2012,08,11,17,50,27.80
2012,08,11,17,51,27.70
2012,08,11,17,52,27.70
2012,08,11,17,53,27.70
2012,08,11,17,54,27.60
2012,08,11,17,55,27.60
2012,08,11,17,56,27.60
2012,08,11,17,57,27.50
2012,08,11,17,58,27.50
2012,08,11,17,59,27.50
2012,08,11,18,00,27.50
2012,08,11,18,01,27.50
2012,08,11,18,02,27.50
2012,08,11,18,03,27.40
2012,08,11,18,04,27.40
2012,08,11,18,05,27.40
2012,08,11,18,06,27.40
2012,08,11,18,07,27.50
2012,08,11,18,08,27.50
2012,08,11,18,09,27.60
2012,08,11,18,10,27.60
2012,08,11,18,11,27.60
2012,08,11,18,12,27.60
2012,08,11,18,13,27.60
2012,08,11,18,14,27.70
2012,08,11,18,15,27.70
2012,08,11,18,16,27.70
2012,08,11,18,17,27.80
2012,08,11,18,18,27.90
2012,08,11,18,19,27.90
2012,08,11,18,20,28.00
2012,08,11,18,21,28.00
2012,08,11,18,22,28.10
2012,08,11,18,23,28.10
2012,08,11,18,24,28.10
2012,08,11,18,25,28.00
2012,08,11,18,26,28.00
2012,08,11,18,27,28.00
2012,08,11,18,28,27.90
2012,08,11,18,29,27.90
2012,08,11,18,30,27.90
2012,08,11,18,31,27.90
2012,08,11,18,32,27.90
2012,08,11,18,33,27.80
2012,08,11,18,34,27.80
2012,08,11,18,35,27.80
2012,08,11,18,36,27.70
2012,08,11,18,37,27.70
2012,08,11,18,38,27.60
2012,08,11,18,39,27.60
2012,08,11,18,40,27.60
2012,08,11,18,41,27.70
2012,08,11,18,42,27.70
2012,08,11,18,43,27.60
2012,08,11,18,44,27.60
2012,08,11,18,45,27.60
2012,08,11,18,46,27.50
2012,08,11,18,47,27.60
2012,08,11,18,48,27.60
2012,08,11,18,49,27.60
2012,08,11,18,50,27.60
2012,08,11,18,51,27.60
2012,08,11,18,52,27.70
2012,08,11,18,53,27.70
2012,08,11,18,54,27.70
2012,08,11,18,55,27.70
2012,08,11,18,56,27.70
2012,08,11,18,57,27.70
2012,08,11,18,58,27.70
2012,08,11,18,59,27.80
2012,08,11,19,00,27.80
2012,08,11,19,01,27.80
2012,08,11,19,02,27.80
2012,08,11,19,03,27.90
2012,08,11,19,04,27.90
2012,08,11,19,05,27.90
2012,08,11,19,06,27.90
2012,08,11,19,07,27.80
2012,08,11,19,08,27.80
2012,08,11,19,09,27.80
2012,08,11,19,10,27.80
2012,08,11,19,11,27.70
2012,08,11,19,12,27.70
2012,08,11,19,13,27.60
2012,08,11,19,14,27.60
2012,08,11,19,15,27.60
2012,08,11,19,16,27.50
2012,08,11,19,17,27.50
2012,08,11,19,18,27.40
2012,08,11,19,19,27.40
2012,08,11,19,20,27.30
2012,08,11,19,21,27.30
2012,08,11,19,22,27.30
2012,08,11,19,23,27.20
2012,08,11,19,24,27.20
2012,08,11,19,25,27.20
2012,08,11,19,26,27.10
2012,08,11,19,27,27.10
2012,08,11,19,28,27.10
2012,08,11,19,29,27.00
2012,08,11,19,30,26.90
2012,08,11,19,31,26.90
2012,08,11,19,32,26.80
2012,08,11,19,33,26.80
2012,08,11,19,34,26.70
2012,08,11,19,35,26.70
2012,08,11,19,36,26.60
2012,08,11,19,37,26.60
2012,08,11,19,38,26.60
2012,08,11,19,39,26.50
2012,08,11,19,40,26.40
2012,08,11,19,41,26.40
2012,08,11,19,42,26.40
2012,08,11,19,43,26.30
2012,08,11,19,44,26.30
2012,08,11,19,45,26.20
2012,08,11,19,46,26.20
2012,08,11,19,47,26.20
2012,08,11,19,48,26.10
2012,08,11,19,49,26.10
2012,08,11,19,50,26.00
2012,08,11,19,51,25.90
2012,08,11,19,52,25.90
2012,08,11,19,53,25.90
2012,08,11,19,54,25.80
2012,08,11,19,55,25.80
2012,08,11,19,56,25.70
2012,08,11,19,57,25.60
2012,08,11,19,58,25.60
2012,08,11,19,59,25.50
2012,08,11,20,00,25.40
2012,08,11,20,01,25.40
2012,08,11,20,02,25.30
2012,08,11,20,03,25.20
2012,08,11,20,04,25.20
2012,08,11,20,05,25.10
2012,08,11,20,06,25.10
2012,08,11,20,07,25.00
2012,08,11,20,08,24.90
2012,08,11,20,09,24.90
2012,08,11,20,10,24.90
2012,08,11,20,11,24.80
2012,08,11,20,12,24.80
2012,08,11,20,13,24.80
2012,08,11,20,14,24.70
2012,08,11,20,15,24.70
2012,08,11,20,16,24.70
2012,08,11,20,17,24.60
2012,08,11,20,18,24.60
2012,08,11,20,19,24.50
2012,08,11,20,20,24.40
2012,08,11,20,21,24.40
2012,08,11,20,22,24.40
2012,08,11,20,23,24.40
2012,08,11,20,24,24.40
2012,08,11,20,25,24.40
2012,08,11,20,26,24.40
2012,08,11,20,27,24.40
2012,08,11,20,28,24.40
2012,08,11,20,29,24.40
2012,08,11,20,30,24.40
